Weather History for Minneapolis Flying Cloud, MN

Change the Weather History Date:

Thursday, January 5, 2012

  Actual Average Record
Temperature  
Mean Temperature 36 °F -  
Max Temperature 45 °F 23 °F 45 °F (2012)
Min Temperature 27 °F 8 °F -18 °F (2014)
Degree Days  
Heating Degree Days 29    
Moisture  
Dew Point 29 °F    
Average Humidity 79    
Maximum Humidity 92    
Minimum Humidity 65    
Precipitation  
Precipitation 0.00 in - - ()
Sea Level Pressure  
Sea Level Pressure 29.76 in    
Wind  
Wind Speed 5 mph (SW)    
Max Wind Speed 10 mph    
Max Gust Speed -    
Visibility 10 miles    
Events      
Averages and records for this station are not official NWS values.
T = Trace of Precipitation, MM = Missing Value Source: NWS Daily Summary

Daily Weather History Graph

Daily Weather History Graph

Search for Another Location

Airport:

Trip Planner

Search our weather history database for the weather conditions in past years. The results will help you decide how hot, cold, wet, or windy it might be!

Date:

Astronomy

Jan. 05, 2012 Rise Set
Actual Time 7:51 AM CST 4:47 PM CST
Civil Twilight 7:18 AM CST 5:20 PM CST
Nautical Twilight 6:41 AM CST 5:57 PM CST
Astronomical Twilight 6:05 AM CST 6:32 PM CST
Moon 1:50 PM CST (1/5) 4:37 AM CST (1/5)
Length of Visible Light 10h 02m
Length of Day
8h 55m
Waxing Gibbous, 88% of the Moon is Illuminated
Jan 5
Waxing Gibbous
Jan 9
Full
Jan 16
Last Quarter
Jan 23
New
Jan 30
First Quarter

Hourly Weather History & Observations

Time (CST) Temp. Windchill Dew Point Humidity Pressure Visibility Wind Dir Wind Speed Gust Speed Precip Events Conditions
12:53 AM 28.0 °F 24.2 °F 25.0 °F 88% 29.97 in 10.0 mi WSW 3.5 mph - N/A   Clear
1:53 AM 27.0 °F 21.6 °F 24.1 °F 89% 29.95 in 10.0 mi SW 4.6 mph - N/A   Clear
2:53 AM 27.0 °F 19.5 °F 24.1 °F 89% 29.96 in 10.0 mi SW 6.9 mph - N/A   Clear
3:53 AM 27.0 °F 23.0 °F 25.0 °F 92% 29.90 in 10.0 mi SW 3.5 mph - N/A   Clear
4:53 AM 27.0 °F 19.5 °F 24.1 °F 89% 29.89 in 10.0 mi SW 6.9 mph - N/A   Clear
5:53 AM 28.0 °F 21.7 °F 25.0 °F 88% 29.89 in 10.0 mi SW 5.8 mph - N/A   Clear
6:53 AM 28.0 °F - 25.0 °F 88% 29.87 in 10.0 mi Calm Calm - N/A   Clear
7:53 AM 27.0 °F 21.6 °F 24.1 °F 89% 29.84 in 10.0 mi South 4.6 mph - N/A   Clear
8:53 AM 28.0 °F 22.8 °F 25.0 °F 88% 29.81 in 10.0 mi South 4.6 mph - N/A   Clear
9:53 AM 32.0 °F 27.5 °F 27.0 °F 82% 29.79 in 10.0 mi SSW 4.6 mph - N/A   Clear
10:53 AM 35.1 °F 29.3 °F 28.0 °F 76% 29.76 in 10.0 mi SSW 6.9 mph - N/A   Clear
11:53 AM 37.0 °F 32.4 °F 28.9 °F 73% 29.73 in 10.0 mi SW 5.8 mph - N/A   Clear
12:53 PM 41.0 °F 35.8 °F 30.0 °F 65% 29.71 in 10.0 mi SW 8.1 mph - N/A   Clear
1:53 PM 42.1 °F 37.1 °F 30.9 °F 65% 29.69 in 10.0 mi SW 8.1 mph - N/A   Clear
2:53 PM 43.0 °F 38.2 °F 32.0 °F 65% 29.67 in 10.0 mi SW 8.1 mph - N/A   Clear
3:53 PM 45.0 °F 39.7 °F 34.0 °F 65% 29.66 in 10.0 mi WSW 10.4 mph - N/A   Clear
4:53 PM 43.0 °F 39.5 °F 34.0 °F 71% 29.64 in 10.0 mi SW 5.8 mph - N/A   Clear
5:53 PM 42.1 °F 37.7 °F 34.0 °F 73% 29.63 in 10.0 mi SSW 6.9 mph - N/A   Clear
6:53 PM 42.1 °F 37.1 °F 34.0 °F 73% 29.64 in 10.0 mi WSW 8.1 mph - N/A   Clear
7:53 PM 39.9 °F 35.8 °F 34.0 °F 79% 29.64 in 10.0 mi SW 5.8 mph - N/A   Clear
9:53 PM 39.9 °F 34.5 °F 33.1 °F 77% 29.63 in 10.0 mi WSW 8.1 mph - N/A   Clear
10:53 PM 39.9 °F 35.8 °F 32.0 °F 73% 29.63 in 10.0 mi WSW 5.8 mph - N/A   Clear
11:53 PM 39.9 °F 35.1 °F 30.9 °F 70% 29.63 in 10.0 mi WSW 6.9 mph - N/A   Clear